period_start,C,m1,H,J0,J1,J2,J3,J4,J5,JA,JB,JC,JD,JJ,JK,JN,#
2014-10-07 00:03:22,0.02,0.06,0.00,23.24,27.45,30.21,4.77,26.67,1021.30,2036.48,3451.98,3313.77,3589.42,349.77,348.59,3.16,0000 0000 0000 0000 000000
2014-10-07 00:08:23,0.04,0.06,0.00,23.19,27.45,30.21,4.77,26.70,1021.30,2036.63,3451.72,3313.40,3589.06,350.07,349.06,3.19,0000 0000 0000 0000 000000
2014-10-07 00:13:24,-0.03,0.06,0.00,23.21,27.45,30.22,4.76,26.85,1021.39,2036.39,3451.04,3313.03,3589.00,350.12,349.32,3.22,0000 0000 0000 0000 000000
2014-10-07 00:18:25,0.06,0.06,0.00,23.26,27.45,30.22,4.78,26.64,1021.48,2036.55,3450.99,3313.01,3588.99,349.99,349.06,3.25,0000 0000 0000 0000 000000
2014-10-07 00:23:27,0.01,0.06,0.00,23.23,27.45,30.21,4.73,26.73,1021.49,2036.64,3450.95,3313.00,3588.84,349.67,348.62,3.28,0000 0000 0000 0000 000000
2014-10-07 00:28:28,0.03,0.06,0.00,23.22,27.45,30.22,4.82,26.67,1021.50,2036.50,3450.34,3313.00,3588.19,350.17,349.20,3.30,0000 0000 0000 0000 000000
2014-10-07 00:33:29,0.01,0.06,0.00,23.18,27.45,30.21,4.77,26.67,1021.49,2036.53,3450.01,3312.91,3588.02,349.96,349.11,3.33,0000 0000 0000 0000 000000
2014-10-07 00:38:30,0.03,0.06,0.00,23.23,27.45,30.22,4.74,26.66,1021.48,2036.65,3449.99,3312.65,3588.00,349.43,348.54,3.36,0000 0000 0000 0000 000000
2014-10-07 00:43:31,-0.01,0.06,0.00,23.30,27.45,30.19,4.81,26.75,1021.50,2036.44,3449.88,3312.10,3587.98,350.37,349.20,3.39,0000 0000 0000 0000 000000
2014-10-07 00:48:33,-0.00,0.06,0.00,23.23,27.45,30.21,4.75,26.58,1021.50,2036.27,3449.17,3312.00,3587.45,349.85,349.17,3.42,0000 0000 0000 0000 000000
2014-10-07 00:53:34,0.02,0.06,0.00,23.20,27.45,30.21,4.80,26.77,1021.50,2036.23,3449.00,3312.00,3587.03,349.57,348.69,3.45,0000 0000 0000 0000 000000
2014-10-07 00:58:35,-0.01,0.06,0.00,23.26,27.45,30.22,4.79,26.72,1021.50,2036.14,3448.96,3311.99,3587.01,349.74,348.79,3.48,0000 0000 0000 0000 000000
2014-10-07 01:03:36,0.03,0.06,0.00,23.24,27.45,30.21,4.82,26.71,1021.50,2036.12,3448.52,3311.97,3586.98,349.92,349.12,3.51,0000 0000 0000 0000 000000
2014-10-07 01:08:37,0.03,0.07,0.00,23.24,27.45,30.22,4.80,26.73,1021.50,2036.17,3448.04,3311.84,3586.92,350.01,348.94,3.54,0000 0000 0000 0000 000000
2014-10-07 01:13:38,0.04,0.07,0.00,23.27,27.45,30.24,4.83,26.87,1021.50,2036.32,3448.01,3311.53,3586.67,349.92,348.90,3.57,0000 0000 0000 0000 000000
2014-10-07 01:18:39,0.01,0.07,0.00,23.24,27.45,30.23,4.78,26.82,1021.50,2036.36,3448.00,3311.22,3586.30,349.73,348.81,3.60,0000 0000 0000 0000 000000
2014-10-07 01:23:40,0.01,0.07,0.00,23.27,27.45,30.22,4.86,26.71,1021.50,2036.32,3447.98,3311.05,3586.04,349.91,349.00,3.63,0000 0000 0000 0000 000000
2014-10-07 01:28:41,0.02,0.07,0.00,23.27,27.45,30.21,4.76,26.79,1021.50,2036.31,3447.56,3311.02,3586.00,349.93,348.82,3.66,0000 0000 0000 0000 000000
2014-10-07 01:33:42,0.00,0.07,0.00,23.24,27.45,30.21,4.89,26.77,1021.50,2036.26,3447.07,3311.00,3586.00,350.41,349.30,3.68,0000 0000 0000 0000 000000
2014-10-07 01:38:44,0.02,0.07,0.00,23.28,27.45,30.21,4.80,26.80,1021.50,2036.34,3447.01,3310.99,3585.97,349.97,349.11,3.71,0000 0000 0000 0000 000000
2014-10-07 01:43:45,0.04,0.07,0.00,23.25,27.45,30.23,4.85,26.68,1021.50,2036.44,3447.00,3310.97,3585.91,350.33,349.27,3.74,0000 0000 0000 0000 000000
2014-10-07 01:48:47,0.00,0.07,0.00,23.26,27.45,30.20,4.77,26.64,1021.50,2036.39,3446.52,3310.94,3585.35,349.60,348.70,3.77,0000 0000 0000 0000 000000
2014-10-07 01:53:48,0.07,0.07,0.00,23.23,27.45,30.20,4.74,26.68,1021.50,2036.64,3446.05,3310.89,3585.06,349.23,348.58,3.80,0000 0000 0000 0000 000000
2014-10-07 01:58:49,0.04,0.07,0.00,23.19,27.43,30.21,4.81,26.67,1021.50,2036.83,3446.01,3310.69,3585.04,349.74,348.87,3.83,0000 0000 0000 0000 000000
2014-10-07 02:03:50,0.02,0.07,0.00,23.18,27.42,30.20,4.81,26.73,1021.50,2036.87,3446.00,3310.32,3585.00,350.16,349.34,3.86,0000 0000 0000 0000 000000
2014-10-07 05:43:25,0.00,0.00,0.00,15.39,19.53,16.91,4.68,25.37,1020.58,1999.56,3415.60,3277.88,3557.42,335.46,344.30,0.00,0000 0000 0000 0000 000000
2014-10-07 05:48:26,0.00,0.00,0.00,15.64,19.32,18.18,4.83,25.88,1021.00,2067.01,3528.09,3387.43,3676.65,349.58,357.63,0.03,0000 0000 0000 0000 000000
2014-10-07 05:53:27,0.00,0.00,0.00,16.04,19.14,18.90,4.92,25.93,1021.04,2067.48,3527.98,3387.94,3676.95,350.25,357.55,0.06,0000 0000 0000 0000 000000
2014-10-07 05:58:28,0.01,0.00,0.00,16.48,18.99,19.56,4.81,25.79,1021.27,2067.99,3527.99,3388.39,3677.17,349.81,357.12,0.09,0000 0000 0000 0000 000000
2014-10-07 06:03:30,0.04,0.00,0.00,16.92,18.90,20.14,4.86,25.74,1021.49,2068.69,3528.04,3389.02,3677.93,350.16,356.98,0.12,0000 0000 0000 0000 000000
2014-10-07 06:08:31,0.02,0.00,0.00,17.37,18.84,20.53,4.79,25.76,1021.50,2069.01,3528.40,3389.67,3678.05,349.49,355.70,0.15,0000 0000 0000 0000 000000
2014-10-07 06:13:32,0.05,0.00,0.00,17.82,18.82,20.74,4.81,25.59,1021.54,2069.32,3528.28,3389.95,3678.17,350.18,355.90,0.18,0000 0000 0000 0000 000000
2014-10-07 06:18:33,0.06,0.01,0.00,18.28,18.85,21.00,4.81,25.53,1021.66,2069.81,3528.08,3389.93,3678.08,350.37,355.35,0.21,0000 0000 0000 0000 000000
2014-10-07 06:23:35,0.03,0.01,0.00,18.75,18.91,21.38,4.80,25.50,1021.96,2069.83,3527.96,3389.17,3677.95,349.72,354.36,0.24,0000 0000 0000 0000 000000
2014-10-07 06:28:36,-0.00,0.01,0.00,19.19,19.00,21.94,4.77,25.48,1021.99,2069.62,3527.29,3388.98,3677.18,349.83,353.88,0.27,0000 0000 0000 0000 000000
2014-10-07 06:33:38,-0.00,0.01,0.00,19.56,19.13,22.38,4.79,25.29,1022.03,2069.11,3526.70,3388.27,3676.59,350.09,353.89,0.30,0000 0000 0000 0000 000000
2014-10-07 06:38:39,0.07,0.01,0.00,19.91,19.28,22.75,4.81,25.41,1022.21,2069.00,3525.68,3387.48,3675.56,350.16,353.44,0.32,0000 0000 0000 0000 000000
2014-10-07 06:43:40,0.02,0.01,0.00,20.18,19.45,23.10,4.82,25.22,1022.41,2068.69,3524.63,3386.46,3674.31,350.26,353.21,0.35,0000 0000 0000 0000 000000
2014-10-07 06:48:42,0.02,0.01,0.00,20.41,19.64,23.46,4.76,25.35,1022.48,2068.03,3523.56,3385.42,3673.07,350.28,352.99,0.38,0000 0000 0000 0000 000000
2014-10-07 06:53:43,0.01,0.01,0.00,20.63,19.85,23.82,4.80,25.31,1022.48,2067.65,3522.31,3384.22,3671.68,350.37,352.73,0.41,0000 0000 0000 0000 000000
2014-10-07 06:58:45,0.08,0.01,0.00,20.80,20.07,24.17,4.72,25.23,1022.49,2066.98,3520.84,3382.79,3670.10,349.43,351.78,0.44,0000 0000 0000 0000 000000
2014-10-07 07:03:46,-0.01,0.01,0.00,20.95,20.30,24.49,4.83,25.24,1022.58,2066.14,3519.45,3381.30,3668.33,350.02,352.11,0.47,0000 0000 0000 0000 000000
2014-10-07 07:08:47,0.02,0.01,0.00,21.14,20.55,24.81,4.79,25.24,1022.78,2065.41,3517.79,3379.64,3666.42,350.03,352.07,0.50,0000 0000 0000 0000 000000
2014-10-07 07:13:49,0.01,0.02,0.00,21.30,20.79,25.10,4.81,25.11,1022.94,2064.61,3516.15,3378.02,3664.57,350.70,352.62,0.53,0000 0000 0000 0000 000000
2014-10-07 07:18:50,0.16,0.02,0.00,21.44,21.04,25.39,4.74,25.02,1022.97,2063.79,3513.86,3375.57,3661.78,349.76,351.61,0.56,0000 0000 0000 0000 000000
2014-10-07 07:23:51,0.07,0.02,0.00,21.62,21.29,25.66,4.85,25.18,1023.00,2062.95,3511.72,3373.34,3659.26,350.07,351.58,0.59,0000 0000 0000 0000 000000
2014-10-07 07:28:52,0.20,0.02,0.00,21.79,21.55,25.91,4.79,25.13,1023.33,2062.01,3508.72,3370.01,3655.57,349.79,351.27,0.62,0000 0000 0000 0000 000000
2014-10-07 07:33:54,0.10,0.03,0.00,21.91,21.79,26.17,4.84,25.06,1023.45,2061.07,3505.73,3367.04,3652.15,349.88,351.60,0.65,0000 0000 0000 0000 000000
2014-10-07 07:38:55,0.11,0.03,0.00,22.04,22.04,26.42,4.79,25.14,1023.45,2060.14,3502.82,3364.37,3649.20,349.95,351.17,0.68,0000 0000 0000 0000 000000
2014-10-07 07:43:57,0.12,0.04,0.00,22.20,22.29,26.65,4.73,25.01,1023.47,2059.20,3499.55,3361.53,3646.14,349.45,350.42,0.71,0000 0000 0000 0000 000000
2014-10-07 07:48:58,0.19,0.04,0.00,22.30,22.53,26.85,4.82,24.98,1023.51,2058.29,3495.67,3358.16,3642.49,350.03,351.15,0.74,0000 0000 0000 0000 000000
2014-10-07 07:53:59,0.19,0.05,0.00,22.42,22.77,27.06,4.74,24.87,1023.79,2057.40,3491.55,3354.60,3638.63,349.69,350.63,0.76,0000 0000 0000 0000 000000
2014-10-07 07:59:01,0.18,0.05,0.00,22.54,23.00,27.22,4.83,25.04,1023.93,2056.50,3487.62,3351.30,3634.97,350.15,350.87,0.79,0000 0000 0000 0000 000000
2014-10-07 08:04:02,0.20,0.06,0.00,22.65,23.23,27.38,4.88,24.91,1023.94,2055.58,3483.48,3347.77,3631.15,350.23,350.79,0.82,0000 0000 0000 0000 000000
2014-10-07 08:09:03,0.16,0.06,0.00,22.76,23.45,27.55,4.72,24.89,1023.94,2054.78,3480.19,3344.96,3628.04,349.28,349.91,0.85,0000 0000 0000 0000 000000
2014-10-07 08:14:05,0.17,0.07,0.00,22.83,23.67,27.70,4.80,24.90,1023.95,2053.95,3476.93,3342.20,3624.96,350.05,350.44,0.88,0000 0000 0000 0000 000000
2014-10-07 08:19:06,0.23,0.07,0.00,22.91,23.88,27.78,4.78,24.87,1023.95,2053.08,3472.86,3338.74,3621.14,349.68,350.02,0.91,0000 0000 0000 0000 000000
2014-10-07 08:24:07,0.39,0.08,0.00,23.00,24.09,27.79,4.78,24.84,1024.00,2052.18,3466.85,3333.56,3615.54,350.08,350.45,0.94,0000 0000 0000 0000 000000
2014-10-07 08:29:08,0.48,0.10,0.00,23.08,24.29,27.89,4.73,24.72,1024.21,2051.29,3459.81,3327.47,3608.88,350.17,350.47,0.97,0000 0000 0000 0000 000000
2014-10-07 08:34:09,0.58,0.11,0.00,23.14,24.49,28.02,4.73,24.75,1024.40,2050.52,3451.66,3320.27,3600.99,349.69,349.95,1.00,0000 0000 0000 0000 000000
2014-10-07 08:39:11,0.55,0.13,0.00,23.21,24.68,28.16,4.75,24.81,1024.43,2049.73,3443.89,3313.42,3593.66,350.03,350.14,1.03,0000 0000 0000 0000 000000
2014-10-07 08:44:12,0.43,0.14,0.00,23.31,24.86,28.30,4.76,24.73,1024.43,2048.98,3437.59,3307.78,3587.59,350.46,350.45,1.06,0000 0000 0000 0000 000000
2014-10-07 08:49:13,0.27,0.15,0.00,23.23,25.03,28.44,4.84,24.73,1024.43,2048.16,3432.61,3303.30,3582.81,349.80,349.96,1.09,0000 0000 0000 0000 000000
2014-10-07 08:54:14,0.22,0.16,0.00,23.17,25.20,28.56,4.75,24.68,1024.43,2047.37,3428.26,3299.45,3578.73,350.17,350.33,1.12,0000 0000 0000 0000 000000
2014-10-07 08:59:16,0.36,0.17,0.00,23.27,25.36,28.66,4.79,24.63,1024.44,2047.00,3424.08,3295.85,3574.82,350.31,350.36,1.15,0000 0000 0000 0000 000000
2014-10-07 09:04:17,0.29,0.18,0.00,23.33,25.51,28.75,4.82,24.59,1024.47,2046.42,3419.16,3291.74,3570.46,350.24,350.06,1.17,0000 0000 0000 0000 000000
2014-10-07 09:09:18,0.45,0.19,0.00,23.33,25.65,28.81,4.79,24.60,1024.53,2045.94,3413.32,3287.19,3565.57,349.72,349.70,1.20,0000 0000 0000 0000 000000
2014-10-07 09:14:19,0.38,0.20,0.00,23.35,25.79,28.87,4.79,24.59,1024.63,2045.15,3406.72,3282.21,3560.16,350.01,349.92,1.23,0000 0000 0000 0000 000000
2014-10-07 09:19:20,0.41,0.22,0.00,23.35,25.91,28.95,4.80,24.57,1024.70,2044.76,3400.32,3277.45,3555.04,350.16,350.27,1.26,0000 0000 0000 0000 000000
2014-10-07 09:24:22,0.33,0.22,0.00,23.40,26.03,29.06,4.72,24.52,1024.76,2044.05,3394.79,3273.41,3550.64,349.77,349.72,1.29,0000 0000 0000 0000 000000
2014-10-07 09:29:23,0.34,0.24,0.00,23.31,26.14,29.16,4.80,24.50,1024.86,2043.78,3389.64,3269.56,3546.43,350.27,350.19,1.32,0000 0000 0000 0000 000000
2014-10-07 09:34:24,0.17,0.24,0.00,23.35,26.24,29.26,4.76,24.53,1024.88,2043.05,3385.71,3266.60,3543.26,349.83,349.93,1.35,0000 0000 0000 0000 000000
2014-10-07 09:39:26,0.16,0.25,0.00,23.42,26.34,29.30,4.81,24.57,1024.88,2042.85,3383.11,3264.69,3541.09,350.12,350.13,1.38,0000 0000 0000 0000 000000
2014-10-07 09:44:27,0.01,0.25,0.00,23.36,26.43,29.36,4.71,24.37,1024.90,2042.11,3381.46,3263.40,3539.58,349.73,349.83,1.41,0000 0000 0000 0000 000000
2014-10-07 09:49:28,0.11,0.25,0.00,23.25,26.51,29.42,4.76,24.49,1024.92,2041.99,3379.83,3262.32,3538.24,350.40,350.70,1.44,0000 0000 0000 0000 000000
2014-10-07 09:54:29,0.03,0.25,0.00,23.29,26.59,29.45,4.92,24.63,1024.92,2041.72,3378.50,3261.25,3536.97,350.34,350.49,1.47,0000 0000 0000 0000 000000
2014-10-07 09:59:30,0.06,0.25,0.00,23.45,26.66,29.44,4.88,24.58,1024.92,2041.05,3376.81,3260.02,3535.58,350.12,350.27,1.50,0000 0000 0000 0000 000000
2014-10-07 10:04:31,0.21,0.26,0.00,23.49,26.73,29.46,4.85,24.56,1024.92,2040.99,3374.43,3258.19,3533.58,350.40,350.35,1.53,0000 0000 0000 0000 000000
2014-10-07 10:09:32,0.15,0.27,0.00,23.48,26.79,29.52,4.77,24.50,1024.92,2040.57,3371.37,3255.93,3531.14,350.26,350.14,1.56,0000 0000 0000 0000 000000
2014-10-07 10:14:33,0.25,0.27,0.00,23.27,26.86,29.58,4.84,24.48,1024.92,2040.03,3367.58,3253.19,3528.25,350.20,350.12,1.58,0000 0000 0000 0000 000000
2014-10-07 10:19:35,0.29,0.28,0.00,23.21,26.91,29.61,4.93,24.51,1024.92,2040.00,3363.59,3250.47,3525.28,350.24,350.65,1.61,0000 0000 0000 0000 000000
2014-10-07 10:24:36,0.23,0.29,0.00,23.20,26.97,29.64,4.84,24.45,1024.92,2039.98,3360.10,3248.15,3522.74,350.33,350.63,1.64,0000 0000 0000 0000 000000
2014-10-07 10:29:37,0.17,0.29,0.00,23.35,27.01,29.66,4.86,24.40,1024.92,2039.85,3357.25,3246.17,3520.66,350.42,350.53,1.67,0000 0000 0000 0000 000000
2014-10-07 10:34:39,0.06,0.30,0.00,23.46,27.06,29.69,4.83,24.38,1024.92,2039.30,3354.88,3244.56,3518.97,350.58,350.56,1.70,0000 0000 0000 0000 000000
2014-10-07 10:39:40,0.14,0.30,0.00,23.37,27.11,29.71,4.91,24.42,1024.92,2039.01,3352.59,3242.98,3517.33,350.92,350.88,1.73,0000 0000 0000 0000 000000
2014-10-07 10:44:42,0.16,0.30,0.00,23.22,27.15,29.76,4.94,24.43,1024.92,2039.00,3350.60,3241.55,3515.75,350.73,350.79,1.76,0000 0000 0000 0000 000000
2014-10-07 10:49:43,0.09,0.31,0.00,23.32,27.19,29.81,4.80,24.37,1024.92,2038.84,3348.75,3240.31,3514.34,350.45,350.61,1.79,0000 0000 0000 0000 000000
2014-10-07 10:54:44,0.06,0.31,0.00,23.41,27.23,29.84,4.88,24.37,1024.92,2038.17,3346.75,3238.85,3512.79,350.08,350.12,1.82,0000 0000 0000 0000 000000
2014-10-07 10:59:45,0.16,0.31,0.00,23.28,27.26,29.88,4.93,24.46,1024.92,2038.02,3344.31,3237.33,3511.12,350.47,350.51,1.85,0000 0000 0000 0000 000000
2014-10-07 11:04:47,0.19,0.32,0.00,23.21,27.29,29.93,4.80,24.27,1024.92,2038.00,3341.76,3235.66,3509.29,349.75,349.95,1.88,0000 0000 0000 0000 000000
2014-10-07 11:09:48,0.16,0.32,0.00,23.32,27.32,29.94,4.89,24.34,1024.92,2037.99,3339.30,3234.04,3507.55,350.63,350.83,1.91,0000 0000 0000 0000 000000
2014-10-07 11:14:49,0.15,0.33,0.00,23.34,27.35,29.97,4.87,24.32,1024.92,2037.97,3337.23,3232.59,3505.93,350.46,350.49,1.94,0000 0000 0000 0000 000000
2014-10-07 11:19:50,0.11,0.33,0.00,23.25,27.37,30.02,4.94,24.27,1024.92,2037.82,3335.19,3231.28,3504.53,350.51,350.80,1.97,0000 0000 0000 0000 000000
2014-10-07 11:24:52,0.13,0.33,0.00,23.24,27.40,30.06,4.84,24.19,1024.91,2037.50,3333.13,3229.87,3503.09,350.38,350.77,1.99,0000 0000 0000 0000 000000
2014-10-07 11:29:53,0.07,0.34,0.00,23.33,27.42,30.04,4.76,24.14,1024.88,2037.22,3331.29,3228.63,3501.69,349.98,350.05,2.02,0000 0000 0000 0000 000000
2014-10-07 11:34:55,0.09,0.34,0.00,23.27,27.44,30.08,4.83,24.27,1024.89,2037.08,3329.73,3227.75,3500.65,349.89,350.02,2.05,0000 0000 0000 0000 000000
2014-10-07 11:39:56,0.09,0.34,0.00,23.24,27.45,30.14,4.84,24.30,1024.91,2037.02,3328.36,3226.84,3499.55,350.07,350.21,2.08,0000 0000 0000 0000 000000
2014-10-07 11:44:57,0.10,0.35,0.00,23.33,27.47,30.18,4.82,24.23,1024.91,2037.01,3327.13,3225.82,3498.44,349.91,350.18,2.11,0000 0000 0000 0000 000000
2014-10-07 11:49:58,0.11,0.35,0.00,23.30,27.48,30.17,4.86,24.21,1024.92,2037.00,3325.61,3224.77,3497.32,349.85,350.15,2.14,0000 0000 0000 0000 000000
2014-10-07 11:55:00,0.09,0.35,0.00,23.24,27.50,30.24,4.86,24.31,1024.92,2037.00,3324.20,3223.85,3496.26,350.08,350.34,2.17,0000 0000 0000 0000 000000
2014-10-07 12:00:01,0.10,0.36,0.00,23.28,27.51,30.23,4.78,24.32,1024.92,2036.99,3322.76,3222.89,3495.23,349.93,350.18,2.20,0000 0000 0000 0000 000000
2014-10-07 12:05:02,0.07,0.36,0.00,23.30,27.52,30.17,4.82,24.27,1024.92,2036.90,3321.70,3221.96,3494.16,350.04,350.22,2.23,0000 0000 0000 0000 000000
2014-10-07 12:10:04,0.05,0.36,0.00,23.26,27.54,30.18,4.75,24.19,1024.92,2036.58,3320.30,3220.97,3492.97,350.04,350.15,2.26,0000 0000 0000 0000 000000
2014-10-07 12:15:05,0.14,0.36,0.00,23.26,27.55,30.22,4.81,24.27,1024.92,2036.19,3317.92,3219.59,3491.34,350.27,350.42,2.29,0000 0000 0000 0000 000000
2014-10-07 12:20:06,0.24,0.37,0.00,23.27,27.55,30.29,4.83,24.13,1024.92,2036.07,3314.58,3217.62,3489.14,349.97,350.17,2.32,0000 0000 0000 0000 000000
2014-10-07 12:25:08,0.20,0.38,0.00,23.27,27.56,30.29,4.89,24.23,1024.92,2036.04,3311.42,3215.77,3486.94,350.12,350.14,2.35,0000 0000 0000 0000 000000
2014-10-07 12:30:09,0.15,0.38,0.00,23.22,27.57,30.31,4.78,24.31,1024.92,2036.03,3309.13,3214.49,3485.45,349.75,350.04,2.38,0000 0000 0000 0000 000000
2014-10-07 12:35:10,0.15,0.39,0.00,23.28,27.57,30.32,4.86,24.33,1024.92,2036.03,3306.99,3213.14,3483.92,350.24,350.53,2.40,0000 0000 0000 0000 000000
2014-10-07 12:40:11,0.19,0.39,0.00,23.28,27.57,30.32,4.80,24.27,1024.92,2036.00,3304.41,3211.45,3482.03,349.97,350.20,2.43,0000 0000 0000 0000 000000
2014-10-07 12:45:13,0.21,0.40,0.00,23.22,27.57,30.33,4.73,24.14,1024.93,2036.00,3301.71,3209.60,3480.06,349.65,349.91,2.46,0000 0000 0000 0000 000000
2014-10-07 12:50:14,0.20,0.40,0.00,23.24,27.57,30.36,4.86,24.29,1024.94,2036.00,3299.18,3207.79,3478.13,350.08,350.17,2.49,0000 0000 0000 0000 000000
2014-10-07 12:55:15,0.18,0.41,0.00,23.29,27.57,30.34,4.74,24.31,1024.96,2036.00,3296.67,3206.04,3476.22,349.73,349.87,2.52,0000 0000 0000 0000 000000
2014-10-07 13:00:17,0.20,0.41,0.00,23.28,27.57,30.33,4.77,24.14,1024.94,2036.00,3294.08,3204.29,3474.32,349.56,349.85,2.55,0000 0000 0000 0000 000000
2014-10-07 13:05:18,0.21,0.42,0.00,23.25,27.57,30.35,4.86,24.36,1024.93,2036.00,3291.25,3202.38,3472.29,350.35,350.64,2.58,0000 0000 0000 0000 000000
2014-10-07 13:10:19,0.19,0.43,0.00,23.25,27.57,30.38,4.83,24.18,1024.93,2036.00,3288.63,3200.53,3470.33,350.07,350.25,2.61,0000 0000 0000 0000 000000
2014-10-07 13:15:20,0.18,0.43,0.00,23.32,27.57,30.35,4.80,24.19,1024.91,2036.00,3286.21,3198.92,3468.53,350.21,350.25,2.64,0000 0000 0000 0000 000000
2014-10-07 13:20:21,0.14,0.44,0.00,23.27,27.58,30.35,4.78,24.22,1024.91,2036.00,3284.01,3197.69,3467.10,349.99,350.20,2.67,0000 0000 0000 0000 000000
2014-10-07 13:25:22,0.15,0.44,0.00,23.23,27.57,30.35,4.78,24.20,1024.92,2036.00,3281.95,3196.52,3465.71,349.57,349.81,2.70,0000 0000 0000 0000 000000
2014-10-07 13:30:23,0.12,0.45,0.00,23.26,27.57,30.36,4.82,24.32,1024.92,2036.00,3280.10,3195.33,3464.45,350.13,350.45,2.73,0000 0000 0000 0000 000000
2014-10-07 13:35:25,0.14,0.45,0.00,23.27,27.57,30.37,4.82,24.25,1024.92,2036.00,3278.35,3194.07,3463.01,350.02,350.23,2.76,0000 0000 0000 0000 000000
2014-10-07 13:40:26,0.18,0.45,0.00,23.24,27.57,30.34,4.82,24.41,1024.93,2036.00,3276.18,3192.55,3461.42,349.76,349.89,2.79,0000 0000 0000 0000 000000
2014-10-07 13:45:27,0.16,0.46,0.00,23.25,27.57,30.35,4.72,24.13,1024.94,2036.00,3274.07,3191.03,3459.74,349.80,350.02,2.81,0000 0000 0000 0000 000000
2014-10-07 13:50:28,0.16,0.46,0.00,23.25,27.57,30.37,4.80,24.23,1024.95,2036.00,3272.00,3189.60,3458.19,349.65,350.11,2.84,0000 0000 0000 0000 000000
2014-10-07 13:55:29,0.17,0.47,0.00,23.26,27.57,30.35,4.79,24.18,1024.94,2036.00,3269.80,3188.02,3456.56,349.93,350.11,2.87,0000 0000 0000 0000 000000
2014-10-07 14:00:30,0.17,0.47,0.00,23.25,27.57,30.34,4.79,24.13,1024.93,2036.00,3267.48,3186.48,3454.97,350.28,350.53,2.90,0000 0000 0000 0000 000000
2014-10-07 14:05:31,0.17,0.48,0.00,23.22,27.57,30.33,4.84,24.18,1024.93,2036.00,3265.31,3184.89,3453.32,350.08,350.36,2.93,0000 0000 0000 0000 000000
2014-10-07 14:10:32,0.16,0.48,0.00,23.28,27.57,30.34,4.76,24.14,1024.96,2035.99,3263.20,3183.37,3451.58,350.08,350.47,2.96,0000 0000 0000 0000 000000
2014-10-07 14:15:34,0.19,0.49,0.00,23.26,27.57,30.34,4.85,24.18,1024.97,2035.99,3260.93,3181.75,3449.81,350.21,350.38,2.99,0000 0000 0000 0000 000000
2014-10-07 14:20:35,0.19,0.49,0.00,23.22,27.57,30.33,4.81,24.19,1024.99,2035.99,3258.45,3180.10,3448.02,350.14,350.46,3.02,0000 0000 0000 0000 000000
2014-10-07 14:25:37,0.18,0.50,0.00,23.30,27.57,30.34,4.82,24.17,1025.03,2035.99,3256.02,3178.45,3446.24,350.22,350.40,3.05,0000 0000 0000 0000 000000
2014-10-07 14:30:38,0.18,0.51,0.00,23.28,27.57,30.31,4.71,24.15,1025.13,2035.99,3253.51,3176.85,3444.44,349.43,349.93,3.08,0000 0000 0000 0000 000000
2014-10-07 14:35:39,0.20,0.51,0.00,23.21,27.57,30.33,4.83,24.32,1025.16,2035.99,3250.86,3175.07,3442.49,349.94,350.39,3.11,0000 0000 0000 0000 000000
2014-10-07 14:40:41,0.19,0.52,0.00,23.26,27.56,30.32,4.72,24.20,1025.14,2035.97,3248.30,3173.32,3440.58,349.30,349.64,3.14,0000 0000 0000 0000 000000
2014-10-07 14:45:42,0.21,0.52,0.00,23.27,27.56,30.33,4.85,24.15,1025.14,2035.99,3245.71,3171.57,3438.65,350.03,350.27,3.17,0000 0000 0000 0000 000000
2014-10-07 14:50:43,0.20,0.53,0.00,23.23,27.55,30.34,4.76,24.16,1025.08,2035.99,3243.14,3169.81,3436.77,349.64,349.82,3.20,0000 0000 0000 0000 000000
2014-10-07 14:55:44,0.21,0.54,0.00,23.26,27.55,30.33,4.74,24.30,1025.15,2035.99,3240.36,3167.87,3434.67,349.31,349.60,3.22,0000 0000 0000 0000 000000
2014-10-07 15:00:46,0.22,0.54,0.00,23.28,27.55,30.32,4.80,24.31,1025.24,2035.99,3237.64,3165.82,3432.53,349.67,349.99,3.25,0000 0000 0000 0000 000000
2014-10-07 15:05:47,0.21,0.55,0.00,23.26,27.55,30.30,4.87,24.26,1025.29,2035.99,3235.06,3163.88,3430.40,350.34,350.69,3.28,0000 0000 0000 0000 000000
2014-10-07 15:10:48,0.21,0.55,0.00,23.26,27.55,30.33,4.79,24.26,1025.38,2035.98,3232.49,3161.97,3428.34,349.96,350.14,3.31,0000 0000 0000 0000 000000
2014-10-07 15:15:49,0.20,0.56,0.00,23.28,27.55,30.32,4.82,24.13,1025.39,2035.98,3229.86,3160.14,3426.34,350.46,350.81,3.34,0000 0000 0000 0000 000000
2014-10-07 15:20:51,0.18,0.57,0.00,23.25,27.55,30.31,4.82,24.19,1025.40,2035.97,3227.56,3158.46,3424.57,349.96,350.33,3.37,0000 0000 0000 0000 000000
2014-10-07 15:25:52,0.19,0.57,0.00,23.29,27.55,30.32,4.73,24.27,1025.40,2035.98,3225.26,3156.77,3422.76,349.29,349.56,3.40,0000 0000 0000 0000 000000
2014-10-07 15:30:53,0.17,0.58,0.00,23.29,27.54,30.29,4.86,24.21,1025.40,2035.97,3223.01,3155.25,3421.06,350.24,350.79,3.43,0000 0000 0000 0000 000000
2014-10-07 15:35:55,0.17,0.58,0.00,23.27,27.53,30.29,4.72,24.35,1025.40,2035.98,3220.69,3153.66,3419.45,349.35,349.77,3.46,0000 0000 0000 0000 000000
2014-10-07 15:40:56,0.16,0.59,0.00,23.26,27.52,30.29,4.75,24.23,1025.40,2035.99,3218.40,3152.14,3417.77,349.53,349.77,3.49,0000 0000 0000 0000 000000
2014-10-07 15:45:57,0.18,0.59,0.00,23.23,27.52,30.28,4.81,24.23,1025.40,2035.99,3216.39,3150.61,3416.13,349.64,350.10,3.52,0000 0000 0000 0000 000000
2014-10-07 15:50:59,0.17,0.60,0.00,23.26,27.52,30.28,4.80,24.18,1025.40,2035.99,3214.23,3148.96,3414.40,349.89,350.42,3.55,0000 0000 0000 0000 000000
2014-10-07 15:56:00,0.17,0.60,0.00,23.28,27.52,30.29,4.77,24.08,1025.40,2035.98,3212.13,3147.41,3412.62,350.18,350.54,3.58,0000 0000 0000 0000 000000
2014-10-07 16:01:01,0.16,0.61,0.00,23.23,27.50,30.29,4.85,24.22,1025.42,2035.98,3210.09,3145.90,3411.01,350.09,350.60,3.61,0000 0000 0000 0000 000000
2014-10-07 16:06:02,0.12,0.61,0.00,23.23,27.50,30.27,4.81,24.14,1025.42,2035.98,3208.52,3144.82,3409.84,350.02,350.31,3.63,0000 0000 0000 0000 000000
2014-10-07 16:11:03,0.11,0.62,0.00,23.28,27.50,30.29,4.80,24.17,1025.42,2035.99,3207.07,3143.82,3408.70,350.13,350.44,3.66,0000 0000 0000 0000 000000
2014-10-07 16:16:04,0.12,0.62,0.00,23.26,27.50,30.28,4.82,24.19,1025.42,2035.98,3205.67,3142.82,3407.61,350.14,350.60,3.69,0000 0000 0000 0000 000000
2014-10-07 16:21:06,0.08,0.62,0.00,23.23,27.50,30.25,4.86,24.17,1025.42,2035.99,3204.45,3141.99,3406.71,349.90,350.16,3.72,0000 0000 0000 0000 000000
2014-10-07 16:26:07,0.09,0.63,0.00,23.27,27.50,30.25,4.82,24.24,1025.41,2035.99,3203.41,3141.11,3405.79,349.77,350.26,3.75,0000 0000 0000 0000 000000
2014-10-07 16:31:08,0.08,0.63,0.00,23.22,27.49,30.26,4.75,24.18,1025.41,2035.99,3202.44,3140.54,3405.05,349.96,350.14,3.78,0000 0000 0000 0000 000000
2014-10-07 16:36:09,0.03,0.63,0.00,23.23,27.48,30.26,4.82,24.38,1025.41,2035.97,3201.85,3140.01,3404.56,350.56,350.99,3.81,0000 0000 0000 0000 000000
2014-10-07 16:41:11,0.04,0.63,0.00,23.30,27.47,30.25,4.79,24.24,1025.41,2035.96,3201.05,3139.82,3404.01,350.03,350.50,3.84,0000 0000 0000 0000 000000